Погода в Логе

Россия / Волгоградская область     49°28′53″N   43°51′33″E
темп.,
°C
ветер,
м/с
пор.,
м/с
влажн.,
%
обл.,
%
осадки,
мм/ч
давл.,
гПа
погр.,
м
6 мая, чт
чт600:00+10зюз115751 0.0 101810
03:00+9ю22605 0.0 101810
06:00+10ююв23615 0.0 101956
09:00+16ююв45455 0.0 1018925
12:00+18ю6735100 0.0 10171955
15:00+19ю5634100 0.0 10162255
18:00+18ююв4644100 0.0 1015369
21:00+14юв4850100 0.0 1016144
7 мая, пт
пт700:00+13юв41153100 0.0 1015235
03:00+11юв41155100 0.0 1015226
06:00+12ююв3965100 0.0 1015239
09:00+17ю6946100 0.0 1015721
12:00+19ю7838100 0.0 10151558
15:00+19юз6741100 0.0 10151683
18:00+17юз3557100 0.0 1015574
21:00+14юз2272100 0.0 101612
8 мая, сб
сб800:00+12сз33850 0.0 101742
03:00+10с22915 0.0 101710
06:00+12зсз118324 0.0 101747
09:00+17ю236021 0.0 1017587
12:00+21ююз5643100 0.0 10151965
15:00+22ююз663872 0.0 10142097
18:00+21ююз474558 0.0 1013655
21:00+17ю335785 0.0 101334
9 мая, вс
вс900:00+15ююв346168 0.0 101256
03:00+15ююв4668100 0.0 1011102
06:00+15ю1169100 0.0 101135
09:00+19ююв5845100 0.0 1010922
12:00+20ю5836100 0.0 10091543
15:00+20ююз6842100 0.1 10081782
18:00+14всв1281100 0.9 1009154
21:00+12ссз4589100 1.1 1009184
10 мая, пн
пн1000:00+12ссз3490100 0.1 1010210
03:00+11с4594100 1.8 1009206
06:00+12всв2491100 0.0 1010284
09:00+12в5583100 0.1 1011555
12:00+12юв6780100 0.1 1013735
15:00+11ююв5783100 0.8 1014607
18:00+10юв4685100 1.1 1016593
21:00+9вюв578497 1.2 1017596